Location: Northam
(31.6525°S, 116.6655°E)
Time: 23:03:45
(UTC+08:00)

X-37B - Visible Passes

Search period start: 18 May 2021 00:00
Search period end: 28 May 2021 00:00
Orbit: 386 x 389 km, 45.0° (Epoch: 08 May)

Date Brightness Start Highest point End Pass type
(mag) Time Alt. Az. Time Alt. Az. Time Alt. Az.
19 May 2.9 05:51:44 11° SSW 05:53:36 17° SSE 05:55:46 10° ESE visible
20 May 3.7 04:56:05 10° SE 04:56:05 10° SE 04:56:12 10° SE visible
20 May 1.3 06:29:00 10° SW 06:32:09 48° SSE 06:35:16 10° ENE visible
21 May 2.3 05:32:47 23° S 05:33:40 26° SSE 05:36:26 10° E visible
22 May 4.1 04:37:15 10° ESE 04:37:15 10° ESE 04:37:17 10° ESE visible
22 May 0.6 06:09:33 16° WSW 06:12:01 75° NW 06:15:12 10° NE visible
23 May 1.6 05:14:04 45° ESE 05:14:04 45° ESE 05:16:45 10° ENE visible
24 May 1.7 05:50:58 27° WNW 05:51:47 31° NW 05:54:40 10° NNE visible
25 May 3.2 04:55:37 19° NE 04:55:37 19° NE 04:56:41 10° NE visible
26 May 3.1 05:32:39 12° NNW 05:32:39 12° NNW 05:33:18 10° N visible
